Regional Weather Roundup
Issued by NWS

Home | Current Version | Previous Version | Graphics & Text | Print | Product List | Glossary On
Versions: 1 2 3 4 5 6 7 8 9 10 11 12 13 14 15 16 17 18 19 20 21 22 23 24 25 26 27 28 29 30 31 32 33 34 35 36 37 38 39 40 41 42 43 44 45 46 47 48 49 50
000
ASUS45 KCYS 181710
RWRWY

WYOMING REGIONAL WEATHER ROUNDUP
NATIONAL WEATHER SERVICE CHEYENNE WY
1100 AM MDT SAT APR 18 2015

NOTE:  "FAIR" INDICATES FEW OR NO CLOUDS BELOW 12,000 FEET
WITH NO SIGNIFICANT WEATHER AND/OR OBSTRUCTIONS TO VISIBILITY.

WYZ001-181800-
YELLOWSTONE NATIONAL PARK

CITY           SKY/WX    TMP DP  RH WIND       PRES   REMARKS
LK YELLOWSTONE   N/A     47  19  33 VRB5      30.14S
W YELLOWSTONE  NOT AVBL

$$
WYZ002>013-054>058-071-098>099-181800-
NORTHERN WYOMING

CITY           SKY/WX    TMP DP  RH WIND       PRES   REMARKS
JACKSON        FAIR      54  21  28 N16G24    30.06F
CODY           FAIR      57  34  41 N15G22    30.04S
GREYBULL       FAIR      59  32  36 NW14G22   29.97F
WORLAND        FAIR      55  34  45 VRB3      29.99F
SHERIDAN       FAIR      58  39  49 N5        29.99S
BUFFALO        FAIR      58  33  39 N17G25    29.99F
GILLETTE         N/A     53  41  63 NE5       29.98F
HULETT         CLOUDY    54  41  62 NE5       29.99F
NEWCASTLE      LGT RAIN  45  43  93 NW7       29.98F

$$
WYZ014>020-022>026-101>103-181800-
CENTRAL WYOMING

CITY           SKY/WX    TMP DP  RH WIND       PRES   REMARKS
BIG PINEY      FAIR      56  17  21 N9G17     30.03F
PINEDALE       FAIR      52  18  25 NW3       30.03F
DUBOIS         FAIR      52  18  25 CALM      30.04S
LANDER         FAIR      54  33  45 N7        30.00F
RIVERTON       FAIR      54  33  45 VRB3      30.01F
CASPER         LGT RAIN  46  40  79 N8        29.96F
DOUGLAS        LGT RAIN  43  41  93 NE12      29.96S

$$
WYZ021-027>030-104>119-181800-
SOUTHERN WYOMING

CITY           SKY/WX    TMP DP  RH WIND       PRES   REMARKS
EVANSTON       FAIR      49  26  41 N14       30.07F
KEMMERER       FAIR      50  32  50 W16       30.03F
FORT BRIDGER   SUNNY     52  34  50 NW13      30.08S
ROCK SPRINGS   FAIR      46  36  68 MISG      30.01F
DIXON          LGT SNOW  34  33  96 SW5       30.00S VSB 1   WCI  30
RAWLINS        CLOUDY    38  34  85 NW14      29.96F WCI  30
SARATOGA       SNOW      32  32 100 N3        29.97S VSB 1/4
LARAMIE        LGT SNOW  30  29  96 SW5       29.94S FOG     WCI  25
CHEYENNE       PTSUNNY   38  33  82 N13       29.93S WCI  30
TORRINGTON     LGT RAIN  48  44  86 CALM      29.92S
PINE BLUFFS    CLOUDY    43  37  81 NE5       29.94S

$$


USA.gov is the U.S. government's official web portal to all federal, state and local government web resources and services.